Location: Dos Palmas
(32.4468°N, 116.8732°W)
Time: 22:50:26
(UTC+00:00)

ERBS - Pass Details

Date: 20 June 2021
Orbit: 397 x 416 km, 57.0° (Epoch: 01 August)

Event Time Altitude Azimuth Distance (km) Brightness Sun altitude
Exits shadow 10:09:24 26° 4° (N) 822 4.2 -24.9°
Drops below altitude 10° 10:11:09 10° 23° (NNE) 1,444 6.0 -24.6°
Sets 10:13:17 0° 31° (NNE) 2,308 7.4 -24.4°
